This demonstration page uses our WeatherBlox Daily Observations layout. Learn more.

Hourly Observations for January 19, 2019

Temp ( °F °C ) Dew Point ( °F °C ) Humidity (%) Winds ( mph kmh ) Pressure ( in mb ) Visibility ( mi km ) Precip ( " mm )
12:15 am 00:15 Cloudy 15 -9.3 13 -10.6 90 90 N 10 17 30.39 1029 10 16.0934 0 0
12:35 am 00:35 Mostly Cloudy 15 -9.6 12 -11 90 90 N 12 19 30.39 1029 10 16.0934 0 0
12:55 am 00:55 Cloudy 14 -9.8 12 -11.2 90 90 N 13 20 30.39 1029 10 16.0934 0 0
1:15 am 01:15 Cloudy 14 -10 12 -11.3 90 90 N 13 20 30.39 1029 10 16.0934 0 0
1:35 am 01:35 Cloudy 14 -10 12 -11.3 90 90 N 10 17 30.39 1029 10 16.0934 0 0
1:55 am 01:55 Cloudy 14 -10 12 -11.2 91 91 N 10 17 30.39 1029 10 16.0934 0 0
2:15 am 02:15 Cloudy 14 -10.1 11 -11.4 90 90 N 14 22 30.39 1029 10 16.0934 0 0
2:35 am 02:35 Cloudy 14 -10.1 11 -11.5 90 90 N 12 19 30.39 1029 10 16.0934 0 0
2:55 am 02:55 Cloudy 13 -10.5 11 -11.7 91 91 N 12 19 30.45 1031 10 16.0934 0 0
3:15 am 03:15 Cloudy 13 -10.5 10 -12 89 89 N 12 19 30.45 1031 10 16.0934 0 0
3:35 am 03:35 Cloudy 13 -10.7 10 -12.1 90 90 N 13 20 30.45 1031 10 16.0934 0 0
3:55 am 03:55 Cloudy 12 -11 10 -12.5 89 89 N 13 20 30.45 1031 10 16.0934 0 0
4:15 am 04:15 Cloudy 13 -10.8 10 -12.2 90 90 N 10 17 30.45 1031 10 16.0934 0 0
4:35 am 04:35 Cloudy 12 -10.9 10 -12.3 90 90 N 13 20 30.45 1031 10 16.0934 0 0
4:55 am 04:55 Cloudy 12 -11 10 -12.5 89 89 N 9 15 30.45 1031 10 16.0934 0 0
5:15 am 05:15 Cloudy 12 -11 10 -12.5 89 89 N 9 15 30.45 1031 10 16.0934 0 0
5:35 am 05:35 Cloudy 12 -11.3 9 -12.8 89 89 N 10 17 30.48 1032 10 16.0934 0 0
5:55 am 05:55 Partly Cloudy 11 -11.7 8 -13.1 89 89 N 9 15 30.48 1032 10 16.0934 0 0
6:15 am 06:15 Clear 11 -11.8 8 -13.2 89 89 N 7 11 30.48 1032 10 16.0934 0 0
6:35 am 06:35 Clear 11 -11.7 8 -13.3 88 88 N 10 17 30.48 1032 10 16.0934 0 0
6:55 am 06:55 Clear 11 -11.9 8 -13.3 89 89 N 7 11 30.48 1032 10 16.0934 0 0
7:15 am 07:15 Clear 10 -12.1 8 -13.5 89 89 N 8 13 30.5 1033 10 16.0934 0 0
7:35 am 07:35 Clear 10 -12.3 8 -13.6 90 90 NNW 9 15 30.5 1033 10 16.0934 0 0
7:55 am 07:55 Clear 10 -12.5 7 -13.7 91 91 NNW 8 13 30.5 1033 10 16.0934 0 0
8:15 am 08:15 Sunny 9 -12.6 7 -13.8 91 91 NNW 9 15 30.53 1034 10 16.0934 0 0
8:35 am 08:35 Sunny 10 -12.3 7 -13.7 89 89 NNW 9 15 30.5 1033 10 16.0934 0 0
8:55 am 08:55 Sunny 10 -12.1 8 -13.6 89 89 NNW 12 19 30.53 1034 10 16.0934 0 0
9:15 am 09:15 Sunny 11 -11.8 8 -13.4 88 88 N 6 9 30.5 1033 10 16.0934 0 0
9:35 am 09:35 Sunny 12 -11.2 9 -12.7 89 89 N 10 17 30.53 1034 10 16.0934 0 0
9:55 am 09:55 Sunny 12 -10.9 10 -12.4 89 89 N 10 17 30.53 1034 10 16.0934 0 0
10:15 am 10:15 Sunny 13 -10.6 10 -12.1 89 89 N 9 15 30.53 1034 10 16.0934 0 0
10:35 am 10:35 Sunny 14 -10.1 11 -11.6 89 89 N 8 13 30.53 1034 10 16.0934 0 0
10:55 am 10:55 Partly Cloudy 15 -9.5 13 -10.8 90 90 N 8 13 30.53 1034 10 16.0934 0 0
11:15 am 11:15 Partly Cloudy 15 -9.3 12 -11 88 88 N 7 11 30.5 1033 10 16.0934 0 0
11:35 am 11:35 Partly Cloudy 16 -8.7 13 -10.3 88 88 N 6 9 30.53 1034 10 16.0934 0 0
11:55 am 11:55 Partly Cloudy 17 -8.5 14 -10.1 88 88 N 6 9 30.5 1033 10 16.0934 0 0
12:15 pm 12:15 Mostly Cloudy 17 -8.2 14 -9.8 88 88 N 3 6 30.5 1033 10 16.0934 0 0
12:35 pm 12:35 Mostly Cloudy 18 -7.7 15 -9.5 87 87 N 5 7 30.48 1032 10 16.0934 0 0
12:55 pm 12:55 Mostly Cloudy 19 -7.5 15 -9.4 86 86 NW 5 7 30.48 1032 10 16.0934 0 0
1:15 pm 13:15 Mostly Cloudy 19 -7 16 -8.7 88 88 NNW 3 6 30.42 1030 10 16.0934 0 0
1:35 pm 13:35 Mostly Cloudy 20 -6.6 17 -8.3 88 88 Calm 30.42 1030 10 16.0934 0 0
1:55 pm 13:55 Mostly Cloudy 21 -6.2 17 -8.1 87 87 Calm 30.39 1029 10 16.0934 0 0
2:15 pm 14:15 Mostly Cloudy 20 -6.5 17 -8.6 85 85 Calm 30.39 1029 10 16.0934 0 0
2:35 pm 14:35 Partly Cloudy 21 -6.2 17 -8.6 83 83 Calm 30.39 1029 10 16.0934 0 0
2:55 pm 14:55 Partly Cloudy 22 -5.5 17 -8.1 82 82 WNW 3 6 30.39 1029 10 16.0934 0 0
3:15 pm 15:15 Mostly Cloudy 22 -5.4 18 -7.7 84 84 WNW 5 7 30.39 1029 10 16.0934 0 0
3:35 pm 15:35 Partly Cloudy 22 -5.4 18 -7.9 83 83 Calm 30.39 1029 10 16.0934 0 0
3:55 pm 15:55 Sunny 22 -5.3 18 -8 82 82 Calm 30.39 1029 10 16.0934 0 0
4:15 pm 16:15 Sunny 23 -5.1 18 -7.8 82 82 Calm 30.36 1028 10 16.0934 0 0
4:35 pm 16:35 Sunny 23 -5.2 17 -8.2 80 80 Calm 30.36 1028 10 16.0934 0 0
4:55 pm 16:55 Sunny 23 -5 18 -8 80 80 Calm 30.36 1028 10 16.0934 0 0
5:15 pm 17:15 Sunny 23 -5.1 18 -8 80 80 Calm 30.39 1029 10 16.0934 0 0
5:35 pm 17:35 Sunny 23 -5.2 19 -7.4 85 85 Calm 30.39 1029 10 16.0934 0 0
5:55 pm 17:55 Clear 22 -5.3 19 -7.5 85 85 Calm 30.36 1028 10 16.0934 0 0
6:15 pm 18:15 Clear 22 -5.5 19 -7.2 88 88 S 3 6 30.36 1028 10 16.0934 0 0
6:35 pm 18:35 Clear 22 -5.5 19 -7.1 89 89 SSW 5 7 30.39 1029 10 16.0934 0 0
6:55 pm 18:55 Clear 22 -5.8 19 -7.3 89 89 S 3 6 30.36 1028 10 16.0934 0 0
7:15 pm 19:15 Clear 21 -6.2 19 -7.5 91 91 S 3 6 30.36 1028 10 16.0934 0 0
7:35 pm 19:35 Clear 20 -6.4 19 -7.5 92 92 S 3 6 30.36 1028 10 16.0934 0 0
7:55 pm 19:55 Clear 21 -6.2 19 -7.5 91 91 S 3 6 30.39 1029 10 16.0934 0 0
8:15 pm 20:15 Clear 20 -6.6 18 -7.8 91 91 S 3 6 30.39 1029 10 16.0934 0 0
8:35 pm 20:35 Clear 20 -6.6 18 -7.8 91 91 S 6 9 30.39 1029 10 16.0934 0 0
8:55 pm 20:55 Clear 20 -6.7 18 -7.8 92 92 S 8 13 30.36 1028 10 16.0934 0 0
9:15 pm 21:15 Clear 20 -6.8 18 -8 91 91 S 7 11 30.36 1028 10 16.0934 0 0
9:35 pm 21:35 Clear 20 -6.8 18 -7.9 92 92 S 7 11 30.36 1028 10 16.0934 0 0
9:55 pm 21:55 Clear 20 -6.8 18 -7.9 92 92 S 8 13 30.36 1028 10 16.0934 0 0
10:15 pm 22:15 Clear 20 -6.8 18 -8 91 91 S 12 19 30.33 1027 10 16.0934 0 0
10:35 pm 22:35 Clear 20 -6.8 18 -8 91 91 SSW 13 20 30.33 1027 10 16.0934 0 0
10:55 pm 22:55 Clear 19 -7 17 -8.1 92 92 S 15 24 30.33 1027 10 16.0934 0 0
11:15 pm 23:15 Clear 19 -7 17 -8.2 91 91 S 15 24 30.33 1027 10 16.0934 0 0
11:35 pm 23:35 Clear 19 -7 17 -8.2 91 91 S 13 20 30.33 1027 10 16.0934 0 0
11:55 pm 23:55 Clear 19 -7 17 -8.5 89 89 S 14 22 30.33 1027 10 16.0934 0 0

Powered by AerisWeather